Weather History for Ireland West Airport Knock, Ireland

Change the Weather History Date:

Friday, February 8, 2013

  Actual Average Record
Temperature  
Mean Temperature 44 °F -  
Max Temperature 48 °F - - ()
Min Temperature 39 °F - - ()
Degree Days  
Heating Degree Days 22    
Moisture  
Dew Point 40 °F    
Average Humidity 86    
Maximum Humidity 100    
Minimum Humidity 70    
Precipitation  
Precipitation 0.01 in - - ()
Sea Level Pressure  
Sea Level Pressure 30.28 in    
Wind  
Wind Speed 11 mph ()    
Max Wind Speed 25 mph    
Max Gust Speed -    
Visibility 7.3 miles    
Events Rain    
T = Trace of Precipitation, MM = Missing Value Source: Averaged Metar Reports

Daily Weather History Graph

Daily Weather History Graph

Search for Another Location

Airport:

Trip Planner

Search our weather history database for the weather conditions in past years. The results will help you decide how hot, cold, wet, or windy it might be!

Date:

Astronomy

Feb. 08, 2013 Rise Set
Actual Time 8:08 AM GMT 5:30 PM GMT
Civil Twilight 7:31 AM GMT 6:08 PM GMT
Nautical Twilight 6:49 AM GMT 6:50 PM GMT
Astronomical Twilight 6:08 AM GMT 7:31 PM GMT
Moon 6:36 AM GMT (2/8) 3:41 PM GMT (2/8)
Length of Visible Light 10h 37m
Length of Day
9h 22m
Waning Crescent, 4% of the Moon is Illuminated
Feb 8
Waning Crescent
Feb 10
New
Feb 17
First Quarter
Feb 25
Full
Mar 4
Last Quarter

Hourly Weather History & Observations

Time (GMT) Temp. Windchill Dew Point Humidity Pressure Visibility Wind Dir Wind Speed Gust Speed Precip Events Conditions
12:00 AM 40 °F - 34 °F 70% 30.27 in - NNW 24.6 mph - -  
6:00 AM 40 °F - 38 °F 92% 30.32 in 16 mi NW 15.7 mph - - Rain Light Rain Showers
8:00 AM 41.0 °F 35.2 °F 39.2 °F 93% 30.30 in 6.2 mi WNW 9.2 mph - N/A   Mostly Cloudy
8:30 AM 41.0 °F 35.8 °F 39.2 °F 93% 30.30 in 6.2 mi WNW 8.1 mph - N/A   Mostly Cloudy
9:00 AM 41.0 °F 35.8 °F 39.2 °F 93% 30.30 in 6.2 mi WNW 8.1 mph - N/A   Mostly Cloudy
9:30 AM 41.0 °F 35.8 °F 39.2 °F 93% 30.30 in 6.2 mi West 8.1 mph - N/A   Mostly Cloudy
10:00 AM 42.8 °F 38.0 °F 41.0 °F 93% 30.30 in 6.2 mi West 8.1 mph - N/A   Mostly Cloudy
10:30 AM 42.8 °F 37.5 °F 41.0 °F 93% 30.30 in 6.2 mi West 9.2 mph - N/A   Mostly Cloudy
11:00 AM 42.8 °F 37.5 °F 41.0 °F 93% 30.30 in 6.2 mi West 9.2 mph - N/A   Mostly Cloudy
11:30 AM 44.6 °F 39.7 °F 41.0 °F 87% 30.30 in 6.2 mi WNW 9.2 mph - N/A   Mostly Cloudy
12:00 PM 44.6 °F 38.8 °F 41.0 °F 87% 30.30 in 6.2 mi WNW 11.5 mph - N/A   Scattered Clouds
12:30 PM 46.4 °F 41.1 °F 41.0 °F 81% 30.30 in 6.2 mi WNW 11.5 mph - N/A   Scattered Clouds
1:00 PM 46.4 °F 41.1 °F 41.0 °F 81% 30.30 in 6.2 mi West 11.5 mph - N/A   Scattered Clouds
1:30 PM 48.2 °F - 41.0 °F 76% 30.27 in 6.2 mi WNW 11.5 mph - N/A   Scattered Clouds
2:00 PM 46.4 °F 40.7 °F 39.2 °F 76% 30.27 in 6.2 mi West 12.7 mph - N/A   Scattered Clouds
2:30 PM 46.4 °F 41.5 °F 41.0 °F 81% 30.27 in 6.2 mi West 10.4 mph - N/A   Mostly Cloudy
3:00 PM 48.2 °F - 42.8 °F 82% 30.27 in 6.2 mi West 16.1 mph - N/A   Scattered Clouds
3:30 PM 48.2 °F - 41.0 °F 76% 30.27 in 6.2 mi West 15.0 mph - N/A   Partly Cloudy
4:00 PM 46.4 °F 40.7 °F 41.0 °F 81% 30.24 in 6.2 mi West 12.7 mph - N/A   Partly Cloudy
4:30 PM 46.4 °F 41.1 °F 41.0 °F 81% 30.24 in 6.2 mi West 11.5 mph - N/A   Partly Cloudy
5:00 PM 44.6 °F 38.4 °F 41.0 °F 87% 30.27 in 6.2 mi West 12.7 mph - N/A   Partly Cloudy
6:00 PM 42 °F - 40 °F 91% 30.29 in 19 mi WSW 11.2 mph - -   Scattered Clouds
6:00 PM 41.0 °F 34.7 °F 41.0 °F 100% 30.24 in - WSW 10.4 mph - N/A   Clear